Home   Weather   Hat Yai   Past weeks

Flag for Thailand Past Weather in Hat Yai, Thailand — Yesterday and Last 2 Weeks

Now
90 °F

Passing clouds.


Feels Like: 103 °F
Forecast: 76 / 91 °F
Wind: 2 mph from East

Location: Hat Yai Airport

Current Time: Apr 24, 2017 at 10:58:56 am

Latest Report: Apr 24, 2017 at 10:30 am


Visibility: N/A

Pressure: 29.89 "Hg

Humidity: 67%

Dew Point: 77 °F

Location of Hat YaiLocation

Past Weather in Hat Yai — Graph

°F

Hat Yai Temperature Yesterday

Maximum temperature yesterday: 93 °F (at 1:00 pm)
Minimum temperature yesterday: 75 °F (at 2:30 am)
Average temperature yesterday: 83 °F

High & Low Weather Summary for the Past Weeks

 TemperatureHumidityPressure
High95 °F (Apr 18, 1:30 pm)100% (Apr 10, 3:00 am)29.92 "Hg (Apr 10, 3:00 am)
Low73 °F (Apr 14, 5:30 am)49% (Apr 16, 1:00 pm)29.68 "Hg (Apr 9, 3:00 pm)
Average82 °F84%29.81 "Hg
* Reported Apr 9 9:00 am — Apr 24 9:30 am, Hat Yai, Weather by CustomWeather, © 2017

Note: Actual official high and low records may vary slightly from our data, if they occured in-between our weather recording intervals... More about our weather records

Advertising

Hat Yai Weather History for the Previous 24 Hours

Scroll right to see more
 ConditionsComfort  
Time TempWeatherWind HumidityBarometerVisibility
9:30 am
Mon, Apr 24
88 °FPassing clouds.5 mph70%29.89 "HgN/A
9:00 am86 °FPassing clouds.2 mph75%29.89 "HgN/A
8:30 am84 °FPassing clouds.2 mph84%29.89 "HgN/A
8:00 am82 °FPassing clouds.2 mph84%29.86 "HgN/A
7:30 am81 °FPassing clouds.2 mph89%29.86 "HgN/A
7:00 am79 °FScattered clouds.No wind94%29.83 "HgN/A
6:30 am77 °FPartly sunny.3 mph94%29.83 "Hg6 mi
6:00 am77 °FPassing clouds.2 mph94%29.83 "Hg6 mi
5:30 am77 °FPassing clouds.No wind94%29.80 "Hg5 mi
5:00 am77 °FPassing clouds.No wind94%29.80 "Hg5 mi
4:30 am77 °FPassing clouds.No wind94%29.80 "Hg6 mi
3:30 am77 °FPassing clouds.No wind94%29.80 "HgN/A
3:00 am77 °FPassing clouds.2 mph94%29.80 "HgN/A
2:30 am77 °FPassing clouds.3 mph94%29.80 "HgN/A
2:00 am77 °FPassing clouds.No wind100%29.83 "HgN/A
1:30 am79 °FPassing clouds.No wind94%29.83 "HgN/A
1:00 am79 °FPassing clouds.No wind94%29.83 "HgN/A
12:30 am79 °FPassing clouds.No wind94%29.83 "HgN/A
12:00 am79 °FPassing clouds.2 mph94%29.86 "HgN/A
11:30 pm
Sun, Apr 23
79 °FPassing clouds.3 mph94%29.86 "HgN/A
11:00 pm81 °FPassing clouds.2 mph89%29.86 "HgN/A
10:30 pm81 °FPassing clouds.No wind89%29.86 "HgN/A
10:00 pm79 °FPassing clouds.2 mph94%29.86 "HgN/A
9:30 pm81 °FPassing clouds.No wind89%29.83 "HgN/A
9:00 pm81 °FPassing clouds.No wind84%29.83 "HgN/A
8:00 pm81 °FPassing clouds.2 mph84%29.83 "HgN/A
7:00 pm81 °FPassing clouds.2 mph84%29.80 "HgN/A
6:30 pm82 °FPassing clouds.2 mph79%29.80 "HgN/A
6:00 pm82 °FScattered clouds.3 mph79%29.77 "HgN/A
5:30 pm84 °FScattered clouds.3 mph74%29.77 "HgN/A
5:00 pm82 °FScattered clouds.5 mph79%29.77 "HgN/A
4:30 pm84 °FThunderstorms. Scattered clouds.6 mph70%29.77 "HgN/A
4:00 pm86 °FThunderstorms. Scattered clouds.8 mph70%29.77 "HgN/A
3:30 pm86 °FThunderstorms. Scattered clouds.9 mph75%29.74 "HgN/A
3:00 pm91 °FScattered clouds.8 mph63%29.77 "HgN/A
2:30 pm91 °FPassing clouds.9 mph59%29.77 "HgN/A
2:00 pm93 °FPassing clouds.8 mph63%29.77 "HgN/A
1:30 pm91 °FPassing clouds.6 mph63%29.80 "HgN/A
1:00 pm93 °FPassing clouds.6 mph59%29.83 "HgN/A
12:30 pm91 °FPassing clouds.5 mph63%29.83 "HgN/A
12:00 pm90 °FScattered clouds.6 mph67%29.86 "HgN/A
11:30 am91 °FScattered clouds.5 mph67%29.86 "HgN/A
11:00 am90 °FScattered clouds.7 mph71%29.89 "HgN/A
10:30 am90 °FPassing clouds.7 mph71%29.89 "HgN/A
Weather by CustomWeather, © 2017

See weather overviewHow to use our weather pages